Tracking 29487 objects as of 11-Sep-2024
HD Live streaming from Space Station
objects crossing your sky now

STARLINK-3987

Track STARLINK-3987 now!
10-day predictions
STARLINK-3987 is classified as:


NORAD ID: 52699
Int'l Code: 2022-053AV
Perigee: 545.8 km
Apogee: 547.9 km
Inclination: 53.2 °
Period: 95.4 minutes
Semi major axis: 6917 km
RCS: Unknown
Launch date: May 18, 2022
Source: United States (US)
Launch site: AIR FORCE EASTERN TEST RANGE (AFETR)
Your satellite tracking list
Your tracking list is empty




NASA's NSSDC Master Catalog

Two Line Element Set (TLE):
1 52699U 22053AV  24255.60954238 -.00001831  00000-0 -96967-4 0  9994
2 52699  53.2163  61.6161 0001541  98.7349 261.3818 15.08840873129101
Source of the keplerian elements: AFSPC